Location: Bergnerzell
(49.1816°N, 10.2565°E)
Time: 14:06:21
(UTC+00:00)

IDEFIX/ARIANE 42P - Pass Details

Date: 15 August 2024
Orbit: 782 x 799 km, 98.5° (Epoch: 15 September)

Event Time Altitude Azimuth Distance (km) Brightness Sun altitude
Rises 00:12:58 0° 23° (NNE) 3,285 7.1 -25.9°
Reaches altitude 10° 00:15:36 10° 34° (NE) 2,353 5.9 -25.8°
Maximum altitude 00:20:05 29° 94° (E) 1,414 3.9 -25.6°
Enters shadow 00:21:08 27° 115° (ESE) 1,479 3.8 -25.6°
